Weather History for Burlington, IA

Change the Weather History Date:

Friday, August 31, 2012

  Actual Average Record
Temperature  
Mean Temperature 74 °F 73 °F  
Max Temperature 83 °F 83 °F 99 °F (1953)
Min Temperature 64 °F 63 °F 44 °F (1967)
Degree Days  
Heating Degree Days 0 0  
Month to date heating degree days 3 0  
Since 1 June heating degree days 12 17  
Since 1 July heating degree days 3 4  
Cooling Degree Days 9 8  
Month to date cooling degree days 247 314  
Year to date cooling degree days 1182 1043  
Since 1 June cooling degree days 987 940  
Growing Degree Days 24 (Base 50)    
Moisture  
Dew Point 68 °F    
Average Humidity 74    
Maximum Humidity 93    
Minimum Humidity 54    
Precipitation  
Precipitation 0.08 in 0.15 in 2.13 in (2003)
Month to date precipitation 2.14 4.27  
Year to date precipitation 15.67 27.25  
Sea Level Pressure  
Sea Level Pressure 30.00 in    
Wind  
Wind Speed 5 mph (SE)    
Max Wind Speed 14 mph    
Max Gust Speed 21 mph    
Visibility 10 miles    
Events Rain    
T = Trace of Precipitation, MM = Missing Value Source: NWS Daily Summary

Daily Weather History Graph

Daily Weather History Graph

Search for Another Location

Airport:

Trip Planner

Search our weather history database for the weather conditions in past years. The results will help you decide how hot, cold, wet, or windy it might be!

Date:

Astronomy

Aug. 31, 2012 Rise Set
Actual Time 6:30 AM CDT 7:37 PM CDT
Civil Twilight 6:02 AM CDT 8:05 PM CDT
Nautical Twilight 5:29 AM CDT 8:39 PM CDT
Astronomical Twilight 4:53 AM CDT 9:14 PM CDT
Moon 7:23 PM CDT (8/31) 6:36 AM CDT (8/31)
Length of Visible Light 14h 02m
Length of Day
13h 06m
Full, 100% of the Moon is Illuminated
Aug 31
Full
Sep 8
Last Quarter
Sep 15
New
Sep 22
First Quarter
Sep 29
Full

Hourly Weather History & Observations

Time (CDT) Temp. Heat Index Dew Point Humidity Pressure Visibility Wind Dir Wind Speed Gust Speed Precip Events Conditions
12:53 AM 77.0 °F - 59.0 °F 54% 29.97 in 10.0 mi South 9.2 mph - N/A   Clear
1:53 AM 73.9 °F - 59.0 °F 59% 29.97 in 8.0 mi SSW 3.5 mph - N/A   Clear
2:53 AM 70.0 °F - 60.1 °F 71% 29.97 in 10.0 mi Calm Calm - N/A   Clear
3:53 AM 70.0 °F - 61.0 °F 73% 29.97 in 10.0 mi SSW 4.6 mph - N/A   Clear
4:53 AM 70.0 °F - 61.0 °F 73% 29.98 in 10.0 mi South 5.8 mph - N/A   Clear
5:53 AM 66.0 °F - 61.0 °F 84% 30.00 in 10.0 mi Calm Calm - N/A   Clear
6:53 AM 66.0 °F - 61.0 °F 84% 30.02 in 10.0 mi Calm Calm - N/A   Clear
7:53 AM 73.9 °F - 64.9 °F 73% 30.03 in 10.0 mi Calm Calm - N/A   Clear
8:53 AM 78.1 °F - 66.0 °F 66% 30.04 in 10.0 mi South 4.6 mph - N/A   Clear
9:53 AM 81.0 °F 84.1 °F 69.1 °F 67% 30.05 in 10.0 mi SSE 6.9 mph - N/A   Clear
10:53 AM 82.9 °F 87.0 °F 70.0 °F 65% 30.06 in 10.0 mi SSE 9.2 mph - N/A   Clear
11:53 AM 81.0 °F 84.9 °F 71.1 °F 72% 30.05 in 10.0 mi South 5.8 mph - N/A   Clear
12:53 PM 80.1 °F 83.6 °F 71.1 °F 74% 30.04 in 10.0 mi SSE 5.8 mph - N/A   Clear
1:53 PM 81.0 °F 85.2 °F 72.0 °F 74% 30.01 in 10.0 mi South 5.8 mph - N/A   Clear
2:53 PM 81.0 °F 85.2 °F 72.0 °F 74% 30.01 in 10.0 mi South 10.4 mph - N/A   Clear
3:53 PM 80.1 °F 83.6 °F 71.1 °F 74% 29.99 in 10.0 mi South 4.6 mph - N/A   Clear
4:53 PM 79.0 °F - 72.0 °F 79% 29.99 in 10.0 mi South 3.5 mph - N/A   Mostly Cloudy
5:53 PM 77.0 °F - 72.0 °F 84% 29.98 in 10.0 mi South 5.8 mph - 0.00 in   Partly Cloudy
6:53 PM 75.9 °F - 71.1 °F 85% 29.98 in 10.0 mi Calm Calm - 0.00 in   Partly Cloudy
7:53 PM 75.0 °F - 72.0 °F 90% 29.97 in 10.0 mi NE 4.6 mph - 0.00 in Rain Light Rain
8:50 PM 75.2 °F - 71.6 °F 89% 29.99 in 10.0 mi East 5.8 mph - 0.00 in Rain Light Rain
8:53 PM 75.9 °F - 71.1 °F 85% 29.97 in 10.0 mi East 8.1 mph - 0.00 in Rain Light Rain
9:38 PM 75.2 °F - 69.8 °F 83% 29.99 in 10.0 mi ENE 9.2 mph - 0.00 in   Mostly Cloudy
9:53 PM 75.0 °F - 71.1 °F 87% 29.98 in 10.0 mi ENE 9.2 mph - 0.00 in   Scattered Clouds
10:53 PM 73.9 °F - 71.1 °F 91% 29.99 in 10.0 mi East 6.9 mph - 0.01 in Rain Light Rain
11:49 PM 73.4 °F - 71.6 °F 94% 29.98 in 9.0 mi ENE 8.1 mph 17.3 mph 0.01 in Rain Light Rain
11:53 PM 73.9 °F - 71.1 °F 91% 29.96 in 9.0 mi ENE 9.2 mph 17.3 mph 0.01 in Rain Light Rain